LEO 1 (LEO VANTAGE 1)

Last updated on Wed Jun 24 2026 00:03:25 GMT+0000 (Coordinated Universal Time)

1 43113U 18004C 26173.84010622 .00003335 00000+0 23169-3 0 9994 2 43113 99.2426 92.8666 0351087 62.1929 301.4394 14.67835434438314
UTC large
Height (km)
Speed (km/s)
/
Latitude / Longitude
Inclination (degrees)
Orbital Period (minutes)
Azimuth
Elevation
Range (km)
Doppler Factor

Next 0 passes for location: London (51.5072 / 0.1276)

No passes found over London.
LEO 1 (LEO VANTAGE 1)